Regional Weather Roundup
Issued by NWS

Home | Current Version | Previous Version | Graphics & Text | Print | Product List | Glossary On
Versions: 1 2 3 4 5 6 7 8 9 10 11 12 13 14 15 16 17 18 19 20 21 22 23 24 25 26 27 28 29 30 31 32 33 34 35 36 37 38 39 40 41 42 43 44 45 46 47 48 49 50
000
ASUS43 KFSD 212310
RWRSD

WEATHER ROUNDUP FOR SOUTH DAKOTA
NATIONAL WEATHER SERVICE SIOUX FALLS SD
500 PM CST WED FEB 21 2018

NOTE: "FAIR" INDICATES FEW OR NO CLOUDS BELOW 12,000 FEET WITH NO
SIGNIFICANT WEATHER AND/OR OBSTRUCTIONS TO VISIBILITY.


SDZ001>005-009-010-012>017-220000-
NORTHWEST AND NORTH CENTRAL SOUTH DAKOTA

CITY           SKY/WX    TMP DP  RH WIND       PRES   REMARKS
BUFFALO          N/A      6  -5  60 E6        30.16S WCI  -4
FAITH            N/A      4  -4  69 E6        30.27F WCI  -7
MOBRIDGE       FAIR       9   0  67 SE6       30.39F WCI  -1
$$

SDZ012>016-024>037-041>051-057-063-072>074-220000-
SOUTHWEST AND SOUTH CENTRAL SOUTH DAKOTA

CITY           SKY/WX    TMP DP  RH WIND       PRES   REMARKS
RAPID CTY ARPT FAIR      11   3  70 SE9       30.20R WCI  -2
PIERRE         FAIR       7   1  76 E9        30.39F WCI  -7
CUSTER         FAIR      18   0  45 SW12G21   30.07R WCI   5
ELLSWORTH AFB  FAIR      12   3  66 CALM      30.19R
PHILIP         MIX PCPN  11   3  70 NE7G17    30.30F WCI   0
PINE RIDGE     FAIR      27  13  55 SW17      30.22F WCI  14
SPEARFISH        N/A     18   1  49 CALM      30.13F
WINNER         FAIR      22  11  62 E8        30.38F WCI  12
$$

SDZ004>011-016>023-039-040-220000-
NORTHEAST SOUTH DAKOTA

CITY           SKY/WX    TMP DP  RH WIND       PRES   REMARKS
ABERDEEN       FAIR      10   2  69 S7        30.52F WCI  -1
WATERTOWN      FAIR      13   4  67 S8        30.49S WCI   2
BROOKINGS      FAIR      16   4  59 S7        30.52F WCI   6
SISSETON         N/A     17   2  51 SW5       30.53F WCI  10
$$

SDZ017-020-022-023-036>040-048>070-220000-
SOUTHEAST SOUTH DAKOTA

CITY           SKY/WX    TMP DP  RH WIND       PRES   REMARKS
SIOUX FALLS    PTSUNNY   16   1  51 S8        30.54F WCI   5
HURON          FAIR      18   2  49 S9        30.51F WCI   7
CHAMBERLAIN    FAIR      21   9  60 E12       30.43F WCI   9
MITCHELL       FAIR      17   3  54 S12       30.53F WCI   4
YANKTON        FAIR      18   8  65 SE6       30.54F WCI  10
$$

ABBREVIATIONS USED IN REMARKS
   TC - TEMPERATURE IN CELSIUS
  WCI - WIND CHILL INDEX
   HX - HEAT INDEX
  VSB - VISIBILITY





USA.gov is the U.S. government's official web portal to all federal, state and local government web resources and services.